TimeCST,TemperatureF,Dew PointF,Humidity,Sea Level PressureIn,VisibilityMPH,Wind Direction,Wind SpeedMPH,Gust SpeedMPH,PrecipitationIn,Events,Conditions,WindDirDegrees,DateUTC
12:56 AM,62.6,53.6,72,30.01,8.0,SSE,17.3,26.5,N/A,Rain,Light Rain,160,2013-02-19 06:56:00
1:42 AM,60.8,57.2,88,29.99,8.0,SSE,12.7,-,0.06,Rain,Light Rain,150,2013-02-19 07:42:00
1:56 AM,61.0,57.9,90,30.00,10.0,Variable,3.5,-,0.06,,Overcast,0,2013-02-19 07:56:00
2:11 AM,62.6,57.2,82,29.98,10.0,South,17.3,24.2,N/A,,Overcast,180,2013-02-19 08:11:00
2:19 AM,62.6,57.2,82,29.98,10.0,South,13.8,24.2,0.00,Rain,Light Rain,180,2013-02-19 08:19:00
2:56 AM,63.0,59.0,87,29.98,9.0,South,15.0,24.2,0.06,Rain,Light Rain,190,2013-02-19 08:56:00
3:56 AM,62.1,60.1,93,29.98,8.0,SSW,12.7,-,0.08,Rain,Rain,200,2013-02-19 09:56:00
4:19 AM,62.6,60.8,94,29.98,9.0,SSW,16.1,24.2,0.02,Rain,Rain,200,2013-02-19 10:19:00
4:27 AM,62.6,60.8,94,30.00,2.5,West,11.5,25.3,0.07,Rain,Light Rain,270,2013-02-19 10:27:00
4:30 AM,62.6,60.8,94,30.00,1.5,Variable,6.9,21.9,0.20,Rain,Heavy Rain,0,2013-02-19 10:30:00
4:34 AM,62.6,60.8,94,30.00,1.5,SW,12.7,-,0.28,Rain,Heavy Rain,220,2013-02-19 10:34:00
4:38 AM,62.6,59.0,88,30.00,3.0,WSW,12.7,18.4,0.29,Rain,Rain,240,2013-02-19 10:38:00
4:53 AM,62.6,59.0,88,30.00,10.0,SW,11.5,23.0,0.29,,Mostly Cloudy,230,2013-02-19 10:53:00
4:56 AM,62.1,59.0,90,30.00,10.0,SW,15.0,21.9,0.29,,Mostly Cloudy,220,2013-02-19 10:56:00
5:08 AM,60.8,57.2,88,30.02,10.0,SW,12.7,24.2,0.01,Rain,Light Rain,230,2013-02-19 11:08:00
5:38 AM,60.8,57.2,88,30.03,10.0,WSW,6.9,-,0.03,,Overcast,250,2013-02-19 11:38:00
5:56 AM,59.0,57.0,93,30.01,7.0,Variable,3.5,-,0.03,,Overcast,0,2013-02-19 11:56:00
6:27 AM,59.0,57.2,94,30.06,7.0,Calm,Calm,-,N/A,,Overcast,0,2013-02-19 12:27:00
6:35 AM,59.0,57.2,94,30.06,7.0,West,3.5,-,N/A,,Overcast,270,2013-02-19 12:35:00
6:56 AM,59.0,57.2,94,30.06,7.0,NW,5.8,-,N/A,,Overcast,310,2013-02-19 12:56:00
7:36 AM,59.0,55.4,88,30.08,7.0,NW,6.9,-,N/A,,Overcast,320,2013-02-19 13:36:00
7:52 AM,57.2,55.4,94,30.09,7.0,NW,9.2,-,N/A,,Overcast,320,2013-02-19 13:52:00
7:56 AM,57.9,55.0,90,30.09,7.0,NW,9.2,-,N/A,,Overcast,320,2013-02-19 13:56:00
8:56 AM,59.0,54.0,83,30.12,7.0,NNW,13.8,21.9,N/A,,Overcast,330,2013-02-19 14:56:00
9:43 AM,60.8,53.6,77,30.14,7.0,NNW,19.6,25.3,N/A,,Mostly Cloudy,340,2013-02-19 15:43:00
9:56 AM,61.0,52.0,72,30.14,7.0,NNW,20.7,25.3,N/A,,Mostly Cloudy,330,2013-02-19 15:56:00
10:14 AM,60.8,51.8,72,30.15,7.0,NNW,12.7,24.2,N/A,,Mostly Cloudy,340,2013-02-19 16:14:00
10:56 AM,63.0,50.0,63,30.16,7.0,NNW,15.0,21.9,N/A,,Mostly Cloudy,330,2013-02-19 16:56:00
11:02 AM,62.6,48.2,59,30.16,10.0,NNW,15.0,21.9,N/A,,Mostly Cloudy,340,2013-02-19 17:02:00
11:56 AM,64.9,46.9,52,30.14,10.0,North,18.4,23.0,N/A,,Mostly Cloudy,350,2013-02-19 17:56:00
12:56 PM,66.0,42.1,42,30.13,10.0,North,17.3,-,N/A,,Mostly Cloudy,350,2013-02-19 18:56:00
1:56 PM,66.0,36.0,33,30.13,10.0,NNW,13.8,-,N/A,,Mostly Cloudy,340,2013-02-19 19:56:00
2:56 PM,66.0,34.0,30,30.13,10.0,NNW,12.7,23.0,N/A,,Scattered Clouds,330,2013-02-19 20:56:00
3:56 PM,64.9,28.0,25,30.14,10.0,NNW,15.0,21.9,N/A,,Scattered Clouds,340,2013-02-19 21:56:00
4:56 PM,63.0,27.0,26,30.14,10.0,North,11.5,18.4,N/A,,Partly Cloudy,350,2013-02-19 22:56:00
6:56 PM,54.0,27.0,35,30.17,10.0,North,9.2,-,N/A,,Partly Cloudy,350,2013-02-20 00:56:00
7:56 PM,52.0,26.1,37,30.18,10.0,North,8.1,-,N/A,,Partly Cloudy,360,2013-02-20 01:56:00
8:56 PM,48.0,28.0,46,30.20,10.0,North,6.9,-,N/A,,Scattered Clouds,350,2013-02-20 02:56:00
9:56 PM,46.0,28.9,51,30.21,10.0,North,8.1,-,N/A,,Partly Cloudy,350,2013-02-20 03:56:00
10:56 PM,46.9,27.0,46,30.21,10.0,North,9.2,-,N/A,,Clear,360,2013-02-20 04:56:00
11:56 PM,45.0,26.1,48,30.22,10.0,North,8.1,-,N/A,,Clear,360,2013-02-20 05:56:00